W5CGC Weather Reports


Display with metric or nautical units.
time (UTC)temp
F
wind
direction
speed
MPH
gust
MPH
rain 1hr
in
rain 24hr
in
rain mn
in
humidity
%
barometer
mb
20260505124538 70 48 0.0 4.0 0.00 0.00 0.00 67 1003.7
20260505123037 70 115 0.0 4.0 0.00 0.00 0.00 68 1003.5
20260505121535 70 107 0.0 11.0 0.00 0.00 0.00 68 1003.4
20260505120036 70 0 0.0 6.0 0.00 0.00 0.00 68 1003.4
20260505114537 70 139 0.0 5.0 0.00 0.00 0.00 67 1003.2
20260505113036 70 0 1.0 5.0 0.00 0.00 0.00 67 1003.0
20260505111537 70 113 0.0 5.0 0.00 0.00 0.00 67 1003.0
20260505101535 70 24 1.0 11.0 0.00 0.00 0.00 66 1002.9
20260505100035 71 89 0.0 10.0 0.00 0.00 0.00 65 1003.1
20260505094534 71 155 1.0 8.0 0.00 0.00 0.00 65 1002.9
20260505093040 71 93 1.0 10.0 0.00 0.00 0.00 64 1003.2
20260505091543 72 32 1.0 15.0 0.00 0.00 0.00 63 1003.3
20260505090034 72 266 3.0 10.0 0.00 0.00 0.00 63 1003.5
20260505084535 72 68 3.0 13.0 0.00 0.00 0.00 62 1003.4
20260505083035 72 108 3.0 13.0 0.00 0.00 0.00 62 1003.6
20260505081539 73 18 4.0 11.0 0.00 0.00 0.00 61 1003.4
20260505080037 73 0 4.0 9.0 0.00 0.00 0.00 60 1003.6
20260505074537 73 82 2.0 9.0 0.00 0.00 0.00 59 1003.6
20260505073034 73 140 3.0 13.0 0.00 0.00 0.00 58 1004.0
20260505071551 74 82 3.0 10.0 0.00 0.00 0.00 57 1004.2
20260505070038 74 27 3.0 13.0 0.00 0.00 0.00 57 1004.4
20260505064536 74 86 2.0 9.0 0.00 0.00 0.00 56 1004.7
20260505063032 74 25 3.0 13.0 0.00 0.00 0.00 55 1004.7
20260505061556 74 63 4.0 10.0 0.00 0.00 0.00 54 1004.8
20260505060035 74 27 2.0 8.0 0.00 0.00 0.00 54 1004.8
20260505054535 75 108 2.0 8.0 0.00 0.00 0.00 54 1004.7
20260505053041 74 94 3.0 9.0 0.00 0.00 0.00 54 1004.7
20260505051555 74 25 2.0 12.0 0.00 0.00 0.00 54 1004.8
20260505041540 75 1 3.0 12.0 0.00 0.00 0.00 54 1005.0
20260505040036 75 20 3.0 17.0 0.00 0.00 0.00 53 1005.2
20260505034534 75 4 3.0 12.0 0.00 0.00 0.00 53 1005.3
20260505033034 75 8 4.0 11.0 0.00 0.00 0.00 53 1005.2
20260505031540 75 283 2.0 11.0 0.00 0.00 0.00 53 1005.1
20260505030038 75 20 1.0 18.0 0.00 0.00 0.00 52 1005.3
20260505024539 75 19 2.0 9.0 0.00 0.00 0.00 52 1005.3
20260505023036 76 166 2.0 10.0 0.00 0.00 0.00 51 1005.3
20260505021534 76 96 3.0 10.0 0.00 0.00 0.00 51 1005.1
20260505020032 76 12 1.0 15.0 0.00 0.00 0.00 51 1005.1
20260505014532 76 292 3.0 10.0 0.00 0.00 0.00 51 1005.2
20260505013032 76 90 2.0 10.0 0.00 0.00 0.00 50 1005.2
20260505011537 76 100 1.0 12.0 0.00 0.00 0.00 50 1005.2
20260505010037 77 89 3.0 12.0 0.00 0.00 0.00 49 1005.3
20260505004535 77 42 4.0 14.0 0.00 0.00 0.00 49 1005.2
20260505003038 77 52 4.0 16.0 0.00 0.00 0.00 48 1005.2
20260505001532 78 39 3.0 12.0 0.00 0.00 0.00 48 1005.3
20260505000038 78 354 5.0 17.0 0.00 0.00 0.00 47 1005.6
20260504234536 79 281 3.0 13.0 0.00 0.00 0.00 46 1005.5
20260504233033 79 129 2.0 14.0 0.00 0.00 0.00 46 1005.7
20260504231541 79 29 5.0 13.0 0.00 0.00 0.00 45 1005.6
20260504230034 80 30 3.0 12.0 0.00 0.00 0.00 44 1005.6
20260504224533 81 302 6.0 18.0 0.00 0.00 0.00 42 1006.0
20260504223034 81 39 5.0 19.0 0.00 0.00 0.00 42 1005.9
20260504221535 81 13 4.0 16.0 0.00 0.00 0.00 42 1005.9
20260504220035 82 46 4.0 15.0 0.00 0.00 0.00 42 1006.0
20260504214534 82 6 2.0 13.0 0.00 0.00 0.00 42 1006.2
20260504213038 82 8 5.0 12.0 0.00 0.00 0.00 41 1006.5
20260504211533 83 106 4.0 12.0 0.00 0.00 0.00 40 1006.7
20260504210035 82 6 5.0 15.0 0.00 0.00 0.00 40 1007.1
20260504204533 81 319 4.0 15.0 0.00 0.00 0.00 41 1007.4
20260504203050 81 11 4.0 13.0 0.00 0.00 0.00 42 1007.5
20260504201535 81 13 5.0 14.0 0.00 0.00 0.00 41 1008.0
20260504200032 80 110 4.0 14.0 0.00 0.00 0.00 41 1008.3
20260504194535 81 32 4.0 14.0 0.00 0.00 0.00 41 1008.9
20260504193034 80 357 5.0 13.0 0.00 0.00 0.00 41 1009.0
20260504191535 80 352 3.0 12.0 0.00 0.00 0.00 41 1009.1
20260504190050 80 274 4.0 13.0 0.00 0.00 0.00 41 1009.4
20260504184536 79 360 5.0 16.0 0.00 0.00 0.00 41 1009.6
20260504183035 78 303 4.0 13.0 0.00 0.00 0.00 42 1009.8
20260504181535 78 43 2.0 17.0 0.00 0.00 0.00 45 1010.0
20260504180039 78 29 3.0 13.0 0.00 0.00 0.00 43 1010.3
20260504174536 77 316 3.0 16.0 0.00 0.00 0.00 45 1010.5
20260504173035 76 286 5.0 16.0 0.00 0.00 0.00 43 1010.8
20260504171539 76 343 4.0 12.0 0.00 0.00 0.00 43 1010.9